EW6113 Weather Reports


Display with metric or nautical units.
time (UTC)temp
F
wind
direction
speed
MPH
gust
MPH
rain 1hr
in
rain 24hr
in
rain mn
in
humidity
%
barometer
mb
20210615100108 63 286 1.0 7.0 0.00 0.00 0.00 77 1015.3
20210615094539 63 302 2.0 10.0 0.00 0.00 0.00 77 1015.2
20210615093053 63 290 4.0 11.0 0.00 0.00 0.00 77 1015.3
20210615091602 63 250 5.0 9.0 0.00 0.00 0.00 78 1015.3
20210615090143 63 261 4.0 9.0 0.00 0.00 0.00 78 1015.4
20210615084559 63 259 1.0 8.0 0.00 0.00 0.00 78 1015.6
20210615083048 62 205 0.0 2.0 0.00 0.00 0.00 79 1015.6
20210615081556 62 203 0.0 0.0 0.00 0.00 0.00 80 1015.6
20210615080133 62 203 0.0 1.0 0.00 0.00 0.00 80 1015.5
20210615074553 63 225 0.0 2.0 0.00 0.00 0.00 80 1015.4
20210615073023 63 225 1.0 3.0 0.00 0.00 0.00 80 1015.4
20210615071533 64 223 0.0 2.0 0.00 0.00 0.00 79 1015.5
20210615070028 64 205 0.0 2.0 0.00 0.00 0.00 80 1015.6
20210615064520 64 132 1.0 5.0 0.00 0.00 0.00 80 1015.8
20210615063024 64 116 2.0 6.0 0.00 0.00 0.00 80 1015.7
20210615061521 64 246 0.0 5.0 0.00 0.00 0.00 79 1015.6
20210615060022 64 265 7.0 13.0 0.00 0.00 0.00 79 1015.6
20210615054519 64 218 6.0 10.0 0.00 0.00 0.00 79 1015.7
20210615053035 64 248 7.0 11.0 0.00 0.00 0.00 79 1015.7
20210615051515 64 243 5.0 13.0 0.00 0.00 0.00 79 1015.7
20210615050038 64 228 7.0 13.0 0.00 0.00 0.00 79 1015.5
20210615044526 65 244 7.0 14.0 0.00 0.00 0.00 79 1015.4
20210615043010 65 257 5.0 10.0 0.00 0.00 0.00 80 1015.6
20210615041511 65 259 9.0 14.0 0.00 0.00 0.00 80 1015.3
20210615040017 65 251 7.0 13.0 0.00 0.00 0.00 80 1015.3
20210615034553 65 265 6.0 12.0 0.00 0.00 0.00 80 1015.4
20210615033007 66 236 6.0 12.0 0.00 0.00 0.00 80 1015.3
20210615031521 66 254 7.0 15.0 0.00 0.00 0.00 80 1015.4
20210615030008 66 194 5.0 11.0 0.00 0.00 0.00 80 1015.5
20210615024509 66 294 7.0 13.0 0.00 0.00 0.00 80 1015.6
20210615023011 67 292 5.0 13.0 0.00 0.00 0.00 80 1015.5
20210615021511 66 245 5.0 11.0 0.00 0.00 0.00 80 1015.7
20210615020009 66 285 6.0 15.0 0.00 0.00 0.00 80 1015.7
20210615014508 66 232 7.0 15.0 0.00 0.00 0.00 80 1015.6
20210615013010 67 270 7.0 12.0 0.00 0.00 0.00 80 1015.6
20210615011737 67 269 6.0 16.0 0.00 0.00 0.00 80 1015.7
20210615010150 68 262 5.0 23.0 0.00 0.00 0.00 81 1015.6
20210615004826 69 288 8.0 16.0 0.00 0.00 0.00 81 1015.6
20210615003225 69 279 8.0 16.0 0.00 0.00 0.00 81 1015.7
20210615001631 69 245 7.0 20.0 0.00 0.00 0.00 81 1015.7
20210615000312 70 291 12.0 18.0 0.00 0.00 0.00 80 1015.7
20210614234607 70 281 8.0 15.0 0.00 0.00 0.00 80 1015.9
20210614233236 70 263 8.0 14.0 0.00 0.00 0.00 80 1015.9
20210614231820 70 317 7.0 16.0 0.00 0.00 0.00 80 1015.9
20210614230155 70 294 9.0 19.0 0.00 0.00 0.00 80 1015.9
20210614224723 70 263 11.0 18.0 0.00 0.00 0.00 80 1016.1
20210614223148 70 245 9.0 19.0 0.00 0.00 0.00 80 1016.2
20210614221653 72 284 7.0 19.0 0.00 0.00 0.00 80 1016.1
20210614220210 72 253 9.0 19.0 0.00 0.00 0.00 79 1016.1
20210614214643 71 290 10.0 17.0 0.00 0.00 0.00 80 1016.2
20210614213215 71 279 8.0 20.0 0.00 0.00 0.00 80 1016.2
20210614211707 71 264 8.0 16.0 0.00 0.00 0.00 80 1016.2
20210614210108 71 242 10.0 18.0 0.00 0.00 0.00 80 1016.1
20210614204712 70 274 10.0 19.0 0.00 0.00 0.00 80 1016.1
20210614203241 70 257 8.0 18.0 0.00 0.00 0.00 81 1016.2
20210614201618 70 284 10.0 18.0 0.00 0.00 0.00 80 1016.3
20210614200046 71 272 8.0 19.0 0.00 0.00 0.00 80 1016.1
20210614194607 71 294 10.0 17.0 0.00 0.00 0.00 80 1016.2
20210614193114 72 254 7.0 18.0 0.00 0.00 0.00 79 1016.1
20210614191802 72 253 9.0 15.0 0.00 0.00 0.00 80 1016.0
20210614190113 72 259 9.0 19.0 0.00 0.00 0.00 79 1015.9
20210614184728 72 270 9.0 18.0 0.00 0.00 0.00 79 1015.8
20210614183135 72 290 7.0 16.0 0.00 0.00 0.00 80 1015.9
20210614181640 72 261 8.0 16.0 0.00 0.00 0.00 80 1015.8
20210614180119 72 267 9.0 16.0 0.00 0.00 0.00 80 1015.8
20210614174618 71 300 9.0 17.0 0.00 0.00 0.00 80 1015.8
20210614173114 70 256 9.0 17.0 0.00 0.00 0.00 80 1015.8
20210614171557 71 252 8.0 16.0 0.00 0.00 0.00 80 1015.9
20210614170057 71 252 9.0 15.0 0.00 0.00 0.00 80 1016.0
20210614164558 71 245 9.0 15.0 0.00 0.00 0.00 80 1016.0
20210614163114 69 253 9.0 15.0 0.00 0.00 0.00 77 1016.0
20210614161534 69 286 9.0 12.0 0.00 0.00 0.00 70 1015.8
20210614160038 68 313 5.0 9.0 0.00 0.00 0.00 68 1015.8
20210614154526 67 261 2.0 7.0 0.00 0.00 0.00 69 1015.8
20210614153021 65 290 0.0 4.0 0.00 0.00 0.00 69 1016.0
20210614151527 65 273 1.0 9.0 0.00 0.00 0.00 70 1015.9
20210614150021 65 297 3.0 9.0 0.00 0.00 0.00 70 1016.0
20210614144523 65 298 5.0 9.0 0.00 0.00 0.00 70 1016.0
20210614143020 65 275 4.0 8.0 0.00 0.00 0.00 69 1015.8
20210614141536 65 293 4.0 7.0 0.00 0.00 0.00 69 1015.8
20210614140024 65 291 4.0 8.0 0.00 0.00 0.00 70 1015.6
20210614134514 65 293 1.0 4.0 0.00 0.00 0.00 70 1015.5
20210614133032 65 256 2.0 5.0 0.00 0.00 0.00 70 1015.6
20210614131513 65 277 2.0 5.0 0.00 0.00 0.00 70 1015.5
20210614130011 64 267 3.0 6.0 0.00 0.00 0.00 70 1015.4
20210614124525 63 250 2.0 4.0 0.00 0.00 0.00 71 1015.5
20210614123002 62 281 0.0 0.0 0.00 0.00 0.00 72 1015.5
20210614121502 62 281 0.0 0.0 0.00 0.00 0.00 72 1015.5
20210614120205 62 281 0.0 0.0 0.00 0.00 0.00 72 1015.4
20210614114626 62 281 0.0 1.0 0.00 0.00 0.00 72 1015.5
20210614113202 62 281 0.0 1.0 0.00 0.00 0.00 72 1015.5
20210614111619 63 297 1.0 3.0 0.00 0.00 0.00 72 1015.4
20210614110135 63 259 1.0 4.0 0.00 0.00 0.00 72 1015.2
20210614104700 63 284 0.0 4.0 0.00 0.00 0.00 72 1015.3
20210614103212 63 253 3.0 5.0 0.00 0.00 0.00 73 1015.3
20210614101605 63 279 1.0 3.0 0.00 0.00 0.00 73 1015.2